Regional Weather Roundup
Issued by NWS

Home | Current Version | Previous Version | Text Only | Print | Product List | Glossary On
Versions: 1 2 3 4 5 6 7 8 9 10 11 12 13 14 15 16 17 18 19 20 21 22 23 24 25 26 27 28 29 30 31 32 33 34 35 36 37 38 39 40 41 42 43 44 45 46 47 48 49 50
000
ASUS43 KTOP 292108
RWRKS

WEATHER ROUNDUP FOR KANSAS
NATIONAL WEATHER SERVICE GOODLAND KS
400 PM CDT SAT APR 29 2017

NOTE:  "FAIR" INDICATES FEW OR NO CLOUDS BELOW 12,000 FEET WITH NO
SIGNIFICANT WEATHER AND/OR OBSTRUCTIONS TO VISIBILITY.

KSZ001>006-013>018-027>032-041>047-292200-
NORTHWEST KANSAS

CITY           SKY/WX    TMP DP  RH WIND       PRES   REMARKS
GOODLAND       CLOUDY    35  33  92 N26G35    30.03S WCI  22
HILL CITY      LGT RAIN  40  37  89 N28G43    29.97F FOG     WCI  29
RUSSELL        CLOUDY    42  40  92 N26G33    29.87F FOG
$$

KSZ061>065-074>080-084>089-292200-
SOUTHWEST KANSAS

CITY           SKY/WX    TMP DP  RH WIND       PRES   REMARKS
DODGE CITY     LGT RAIN  39  37  92 N32G41    29.83S FOG     WCI  27
ELKHART          N/A     32  26  78 N21         N/A  WCI  20
GARDEN CITY    FLURRIES  35  32  88 N33G45    29.88F WCI  21
GREAT BEND     RAIN      43  42  97 N29       29.83F FOG
LIBERAL        LGT RAIN  36  35  96 N32G39    29.85F WCI  23
PRATT          DRIZZLE   41  40  95 N20G30    29.81R
$$

KSZ066>073-081>083-090>101-292200-
SOUTHEAST KANSAS

CITY           SKY/WX    TMP DP  RH WIND       PRES   REMARKS
CHANUTE        TSTM      56  53  90 E16       29.67S
COFFEYVILLE    TSTM      56  54  93 NE13      29.66R
HUTCHINSON     LGT RAIN  45  43  93 N18G24    29.79R FOG
MEDICINE LODGE   N/A     60  42  51 N17G29    29.77R
NEWTON         LGT RAIN  45  44  97 N16       29.78R FOG
PARSONS        TSTM      56  54  93 E8        29.68R
WICHITA INTL   CLOUDY    47  46  97 N14G23    29.76R FOG
WICHITA JABRA  CLOUDY    46  46 100 N17       29.75R FOG
WICHITA MCCONL CLOUDY    47  45  94 N15G22    29.73F
WINFIELD       CLOUDY    50  49  96 N14       29.72F
$$

KSZ007>012-019>026-033>040-048>060-102>105-292200-
NORTHEAST KANSAS

CITY           SKY/WX    TMP DP  RH WIND       PRES   REMARKS
CONCORDIA      LGT RAIN  43  42  97 N22G29    29.89S FOG
EMPORIA        LGT RAIN  48  48 100 NW12      29.76R
LAWRENCE       LGT RAIN  50  49  96 NE10      29.73R
MANHATTAN      LGT RAIN  47  47 100 NE22G28   29.82S FOG
MARYSVILLE     RAIN      45  43  93 N15G22    29.87F
OLATHE IND     LGT RAIN  50  48  93 E23G33    29.66F
OLATHE EXE     LGT RAIN  48  48 100 E20G30    29.67F
SALINA         LGT RAIN  47  44  90 N20G26    29.84S FOG
TOPEKA BILLARD LGT RAIN  49  49 100 N10       29.76R
TOPEKA FORBES  CLOUDY    50  48  93 NE12      29.73R
$$



USA.gov is the U.S. government's official web portal to all federal, state and local government web resources and services.